This is the latest recevied weather packets stored in our database for station/object WX7FGZ-7. If no packets are shown the sender has not sent any weather packets the latest 10 day(s).
| Time | Temp. | Humidity | Pressure | Rain* | Wind** | Luminosity | Snow |
|---|---|---|---|---|---|---|---|
| 1778012613 | 20.56° C | 25% | 1011.3 hPa | 0 mm | - | - | - |
| 1778012012 | 19.44° C | 26% | 1011.5 hPa | 0 mm | - | - | - |
| 1778011712 | 20° C | 24% | 1011.5 hPa | 0 mm | - | - | - |
| 1778011245 | 21.11° C | 25% | 1011.6 hPa | 0 mm | - | - | - |
| 1778011129 | 21.11° C | 25% | 1011.6 hPa | 0 mm | - | - | - |
| 1778009164 | 20° C | 27% | 1012.2 hPa | 0 mm | - | - | - |
| 1778009009 | 20° C | 27% | 1012.2 hPa | 0 mm | - | - | - |
| 1778008527 | 19.44° C | 26% | 1012.3 hPa | 0 mm | - | - | - |
| 1778008092 | 19.44° C | 28% | 1012.4 hPa | 0 mm | - | - | - |
| 1778007920 | 19.44° C | 28% | 1012.4 hPa | 0 mm | - | - | - |
| 1778007798 | 19.44° C | 30% | 1012.5 hPa | 0 mm | - | - | - |
| 1778007614 | 19.44° C | 30% | 1012.5 hPa | 0 mm | - | - | - |
| 1778007241 | 18.89° C | 29% | 1012.6 hPa | 0 mm | - | - | - |
| 1778007017 | 18.89° C | 29% | 1012.6 hPa | 0 mm | - | - | - |
| 1778006878 | 18.89° C | 30% | 1012.8 hPa | 0 mm | - | - | - |
| 1778006715 | 18.89° C | 30% | 1012.8 hPa | 0 mm | - | - | - |
| 1778006591 | 19.44° C | 30% | 1012.8 hPa | 0 mm | - | - | - |
| 1778006414 | 19.44° C | 30% | 1012.8 hPa | 0 mm | - | - | - |
| 1778006292 | 18.89° C | 33% | 1012.7 hPa | 0 mm | - | - | - |
| 1778006114 | 18.89° C | 33% | 1012.7 hPa | 0 mm | - | - | - |
| 1778006013 | 17.78° C | 32% | 1012.8 hPa | 0 mm | - | - | - |
| 1778005814 | 17.78° C | 32% | 1012.8 hPa | 0 mm | - | - | - |
| 1778005403 | 18.89° C | 31% | 1012.8 hPa | 0 mm | - | - | - |
| 1778005214 | 18.89° C | 31% | 1012.8 hPa | 0 mm | - | - | - |
| 1778005062 | 18.89° C | 30% | 1012.8 hPa | 0 mm | - | - | - |
* Rain latest hour (hover to see other rain measurements)
** Current wind speed in m/s (hover to see current wind gust speed)